• In France
  • List of Countries
  • For 7 days
  • Water Temperature
  • Satellite Maps
  • Weather Map
  • Weather Widgets
  • user-avatar
    Login

    Hourly Weather Leonia

    Today, 19 August, Sunday

    Time Temperature Precipitation Wind Pressure Humidity
    00:00 +22°C° 0 mm 1 mps 756 mmHg 71%
    01:00 +22°C° 0 mm 1 mps 756 mmHg 73%
    02:00 +22°C° 0 mm 1 mps 756 mmHg 73%
    03:00 +22°C° 0 mm 1 mps 756 mmHg 73%
    04:00 +19°C° 0 mm 0 mps 756 mmHg 73%
    05:00 +22°C° 0 mm 1 mps 756 mmHg 71%
    06:00 +23°C° 0 mm 1 mps 756 mmHg 68%
    07:00 +24°C° 0 mm 1 mps 756 mmHg 66%
    08:00 +25°C° 0.1 mm 1 mps 756 mmHg 61%
    09:00 +27°C° 0.1 mm 2 mps 756 mmHg 57%
    10:00 +28°C° 0.1 mm 2 mps 756 mmHg 52%
    11:00 +29°C° 0 mm 2 mps 756 mmHg 48%
    12:00 +29°C° 0 mm 2 mps 756 mmHg 43%
    13:00 +30°C° 0 mm 3 mps 755 mmHg 39%
    14:00 +30°C° 0 mm 3 mps 755 mmHg 37%
    15:00 +30°C° 0 mm 3 mps 755 mmHg 36%
    16:00 +30°C° 0 mm 3 mps 755 mmHg 34%
    17:00 +29°C° 0 mm 2 mps 754 mmHg 38%
    18:00 +27°C° 0 mm 2 mps 754 mmHg 42%
    19:00 +25°C° 0 mm 1 mps 754 mmHg 46%
    20:00 +25°C° 0 mm 1 mps 754 mmHg 47%
    21:00 +24°C° 0 mm 1 mps 754 mmHg 47%
    22:00 +23°C° 0 mm 1 mps 754 mmHg 48%
    23:00 +23°C° 0 mm 1 mps 754 mmHg 48%

    Tomorrow, 20 August, Monday

    Time Temperature Precipitation Wind Pressure Humidity
    00:00 +23°C° 0 mm 2 mps 754 mmHg 49%
    01:00 +21°C° 0 mm 2 mps 753 mmHg 50%
    02:00 +21°C° 0 mm 2 mps 753 mmHg 51%
    03:00 +21°C° 0 mm 2 mps 753 mmHg 53%
    04:00 +21°C° 0 mm 3 mps 753 mmHg 54%
    05:00 +22°C° 0 mm 3 mps 753 mmHg 56%
    06:00 +24°C° 0 mm 3 mps 753 mmHg 58%
    07:00 +25°C° 0 mm 3 mps 753 mmHg 60%
    08:00 +26°C° 0 mm 4 mps 753 mmHg 55%
    09:00 +28°C° 0 mm 4 mps 753 mmHg 51%
    10:00 +30°C° 0 mm 4 mps 753 mmHg 46%
    11:00 +30°C° 0 mm 4 mps 752 mmHg 45%
    12:00 +30°C° 0 mm 5 mps 752 mmHg 44%
    13:00 +32°C° 0 mm 5 mps 752 mmHg 42%
    14:00 +30°C° 0 mm 5 mps 752 mmHg 43%
    15:00 +30°C° 0 mm 6 mps 751 mmHg 44%
    16:00 +29°C° 0 mm 6 mps 751 mmHg 45%
    17:00 +28°C° 0 mm 5 mps 752 mmHg 51%
    18:00 +27°C° 0 mm 4 mps 752 mmHg 56%
    19:00 +25°C° 0 mm 3 mps 752 mmHg 61%
    20:00 +23°C° 0 mm 4 mps 752 mmHg 66%
    21:00 +22°C° 0 mm 4 mps 753 mmHg 70%
    22:00 +21°C° 0 mm 4 mps 753 mmHg 75%
    23:00 +20°C° 0 mm 4 mps 753 mmHg 74%

    Day after tomorrow, 21 August, Tuesday

    Time Temperature Precipitation Wind Pressure Humidity
    00:00 +19°C° 0 mm 3 mps 754 mmHg 73%
    01:00 +18°C° 0 mm 3 mps 754 mmHg 73%
    02:00 +17°C° 0 mm 3 mps 754 mmHg 73%
    03:00 +16°C° 0 mm 3 mps 754 mmHg 73%
    04:00 +14°C° 0 mm 3 mps 755 mmHg 73%
    05:00 +16°C° 0 mm 3 mps 755 mmHg 71%
    06:00 +17°C° 0 mm 4 mps 756 mmHg 69%
    07:00 +18°C° 0 mm 4 mps 756 mmHg 67%
    08:00 +19°C° 0 mm 4 mps 756 mmHg 61%
    09:00 +21°C° 0 mm 4 mps 756 mmHg 55%
    10:00 +22°C° 0 mm 4 mps 757 mmHg 49%
    11:00 +23°C° 0 mm 4 mps 756 mmHg 45%
    12:00 +25°C° 0 mm 4 mps 756 mmHg 41%
    13:00 +26°C° 0 mm 4 mps 756 mmHg 37%
    14:00 +26°C° 0 mm 4 mps 756 mmHg 37%
    15:00 +26°C° 0 mm 3 mps 756 mmHg 37%
    16:00 +26°C° 0 mm 3 mps 756 mmHg 37%
    17:00 +25°C° 0 mm 3 mps 756 mmHg 41%
    18:00 +23°C° 0 mm 2 mps 756 mmHg 45%
    19:00 +22°C° 0 mm 1 mps 756 mmHg 50%
    20:00 +21°C° 0 mm 1 mps 757 mmHg 53%
    21:00 +20°C° 0 mm 1 mps 757 mmHg 56%
    22:00 +19°C° 0 mm 1 mps 757 mmHg 59%
    23:00 +18°C° 0 mm 2 mps 757 mmHg 62%

    22 August, Wednesday

    Time Temperature Precipitation Wind Pressure Humidity
    00:00 +17°C° 0 mm 2 mps 757 mmHg 65%
    01:00 +17°C° 0 mm 2 mps 757 mmHg 67%
    02:00 +16°C° 0 mm 2 mps 757 mmHg 69%
    03:00 +16°C° 0 mm 2 mps 757 mmHg 71%
    04:00 +16°C° 0 mm 2 mps 757 mmHg 72%
    05:00 +17°C° 0 mm 2 mps 757 mmHg 70%
    06:00 +18°C° 0 mm 3 mps 757 mmHg 67%
    07:00 +19°C° 0 mm 3 mps 758 mmHg 64%
    08:00 +21°C° 0 mm 3 mps 757 mmHg 58%
    09:00 +24°C° 0 mm 3 mps 757 mmHg 51%
    10:00 +25°C° 0 mm 3 mps 757 mmHg 45%
    11:00 +26°C° 0 mm 3 mps 757 mmHg 42%
    12:00 +27°C° 0 mm 3 mps 756 mmHg 40%
    13:00 +28°C° 0 mm 3 mps 756 mmHg 38%
    14:00 +28°C° 0 mm 3 mps 756 mmHg 38%
    15:00 +28°C° 0 mm 3 mps 755 mmHg 38%
    16:00 +28°C° 0 mm 3 mps 755 mmHg 38%
    17:00 +27°C° 0 mm 3 mps 755 mmHg 42%
    18:00 +25°C° 0 mm 3 mps 755 mmHg 47%
    19:00 +24°C° 0 mm 3 mps 755 mmHg 52%
    20:00 +22°C° 0 mm 3 mps 755 mmHg 53%
    21:00 +21°C° 0 mm 3 mps 755 mmHg 54%
    22:00 +20°C° 0 mm 3 mps 755 mmHg 56%
    23:00 +20°C° 0 mm 3 mps 755 mmHg 58%

    23 August, Thursday

    Time Temperature Precipitation Wind Pressure Humidity
    00:00 +19°C° 0 mm 3 mps 754 mmHg 61%
    01:00 +19°C° 0 mm 3 mps 754 mmHg 63%
    02:00 +18°C° 0 mm 3 mps 754 mmHg 67%
    03:00 +18°C° 0 mm 3 mps 754 mmHg 71%
    04:00 +18°C° 0 mm 3 mps 754 mmHg 74%
    05:00 +19°C° 0 mm 3 mps 754 mmHg 72%
    06:00 +20°C° 0 mm 3 mps 753 mmHg 70%
    07:00 +21°C° 0 mm 4 mps 753 mmHg 68%
    08:00 +23°C° 0 mm 4 mps 753 mmHg 61%
    09:00 +26°C° 0 mm 4 mps 753 mmHg 54%
    10:00 +28°C° 0 mm 4 mps 753 mmHg 47%
    11:00 +29°C° 0 mm 3 mps 752 mmHg 43%
    12:00 +30°C° 0 mm 3 mps 752 mmHg 40%
    13:00 +31°C° 0 mm 3 mps 752 mmHg 36%
    14:00 +31°C° 0 mm 2 mps 751 mmHg 37%
    15:00 +30°C° 0 mm 2 mps 751 mmHg 38%
    16:00 +30°C° 0 mm 1 mps 750 mmHg 39%
    17:00 +29°C° 0 mm 1 mps 750 mmHg 41%
    18:00 +28°C° 0 mm 2 mps 750 mmHg 43%
    19:00 +27°C° 0 mm 2 mps 750 mmHg 46%
    20:00 +26°C° 0 mm 2 mps 750 mmHg 47%
    21:00 +25°C° 0 mm 3 mps 750 mmHg 48%
    22:00 +25°C° 0 mm 3 mps 750 mmHg 49%
    23:00 +24°C° 0 mm 3 mps 749 mmHg 51%

    24 August, Friday

    Time Temperature Precipitation Wind Pressure Humidity
    00:00 +22°C° 0 mm 3 mps 749 mmHg 52%
    01:00 +22°C° 0 mm 3 mps 748 mmHg 53%
    02:00 +21°C° 0 mm 3 mps 748 mmHg 56%
    03:00 +21°C° 0 mm 3 mps 748 mmHg 59%
    04:00 +21°C° 0 mm 3 mps 747 mmHg 61%
    05:00 +22°C° 0 mm 3 mps 747 mmHg 61%
    06:00 +23°C° 0 mm 4 mps 747 mmHg 61%
    07:00 +25°C° 0 mm 4 mps 746 mmHg 61%
    08:00 +27°C° 0 mm 4 mps 746 mmHg 57%
    09:00 +28°C° 0 mm 4 mps 746 mmHg 52%
    10:00 +30°C° 0 mm 4 mps 746 mmHg 48%
    11:00 +32°C° 0 mm 4 mps 745 mmHg 45%
    12:00 +33°C° 0 mm 5 mps 745 mmHg 42%
    13:00 +34°C° 0 mm 5 mps 744 mmHg 40%
    14:00 +33°C° 0 mm 5 mps 744 mmHg 42%
    15:00 +32°C° 0 mm 5 mps 744 mmHg 45%
    16:00 +30°C° 0 mm 5 mps 744 mmHg 47%
    17:00 +28°C° 0.2 mm 5 mps 744 mmHg 54%
    18:00 +26°C° 0.2 mm 5 mps 745 mmHg 60%
    19:00 +25°C° 0.2 mm 5 mps 745 mmHg 67%
    20:00 +22°C° 0.1 mm 5 mps 746 mmHg 72%
    21:00 +21°C° 0.1 mm 5 mps 746 mmHg 78%
    22:00 +19°C° 0.1 mm 5 mps 747 mmHg 83%
    23:00 +17°C° 0 mm 5 mps 747 mmHg 83%
    Show more